This is the latest recevied weather packets stored in our database for station/object ZL1CTS-13. If no packets are shown the sender has not sent any weather packets the latest 10 day(s).
| Time | Temp. | Humidity | Pressure | Rain* | Wind** | Luminosity | Snow |
|---|---|---|---|---|---|---|---|
| 1788484505 | 16.11° C | 95% | 1000.3 hPa | 0 mm | - | - | - |
| 1788484504 | 16.11° C | 95% | 1000.3 hPa | 0 mm | - | - | - |
| 1788484207 | 16.11° C | 95% | 1000.3 hPa | 0 mm | - | - | - |
| 1788483904 | 16.11° C | 95% | 1000.2 hPa | 0 mm | - | - | - |
| 1788483606 | 16.67° C | 96% | 1000.2 hPa | 0 mm | - | - | - |
| 1788483304 | 16.67° C | 96% | 1000.2 hPa | 0 mm | - | - | - |
| 1788483004 | 16.67° C | 96% | 1000.1 hPa | 0 mm | - | - | - |
| 1788482705 | 16.67° C | 96% | 1000.1 hPa | 0 mm | - | - | - |
| 1788482704 | 16.67° C | 96% | 1000.1 hPa | 0 mm | - | - | - |
| 1788482404 | 16.67° C | 97% | 1000.3 hPa | 0 mm | - | - | - |
| 1788482104 | 16.67° C | 97% | 1000.5 hPa | 0 mm | - | - | - |
| 1788481805 | 16.67° C | 97% | 1000.6 hPa | 0 mm | - | - | - |
| 1788481804 | 16.67° C | 97% | 1000.6 hPa | 0 mm | - | - | - |
| 1788481504 | 16.67° C | 98% | 1000.6 hPa | 0 mm | - | - | - |
| 1788481204 | 17.22° C | 97% | 1000.5 hPa | 0 mm | - | - | - |
| 1788480905 | 16.67° C | 98% | 1000.4 hPa | 0 mm | - | - | - |
| 1788480904 | 16.67° C | 98% | 1000.4 hPa | 0 mm | - | - | - |
| 1788480604 | 16.11° C | 99% | 1000.4 hPa | 0 mm | - | - | - |
| 1788480304 | 15.56° C | 99% | 1000.4 hPa | 0.25 mm | - | - | - |
| 1788480005 | 15.56° C | 99% | 1000.3 hPa | 0.25 mm | - | - | - |
| 1788480005 | 15.56° C | 99% | 1000.3 hPa | 0.25 mm | - | - | - |
| 1788479732 | 15.56° C | 99% | 1000.1 hPa | 0.25 mm | - | - | - |
| 1788479405 | 15.56° C | 99% | 1000.3 hPa | 0.25 mm | - | - | - |
| 1788479106 | 16.11° C | 99% | 1000.6 hPa | 0.25 mm | - | - | - |
| 1788479105 | 16.11° C | 99% | 1000.7 hPa | 0.25 mm | - | - | - |
* Rain latest hour (hover to see other rain measurements)
** Current wind speed in m/s (hover to see current wind gust speed)